Date String (YYYY-MM-DD hh:mm:ss) UTC,Instrument flags,Ambient pressure (hPa),Sample flow (lpm),Bypass flow (lpm),Sample temperature (°C),Ambient temperature (°C),ASC tube jacket temperature (°C),LED temperature (°C),Box temperature (°C),Sample RH (%),Span deviation,Mass concentration (μg/m³),Mass concentration (μg/m³),Mass concentration (μg/m³)
DateTimeUTC,F1_M11,P_M11,Q1_M11,Q2_M11,T1_M11,T2_M11,T3_M11,T4_M11,T5_M11,U1_M11,ZSPAN_M11,X0_M11,X2_M11,X1_M11
2023-03-03 22:00:00,,0813.1,5.01,0.00,22.1,20.2,00.0,31.0,23.6,15.4,0001.0,0012.76,0006.49,0005.91
2023-03-03 22:01:00,,0813.2,5.01,0.00,22.0,20.1,00.0,31.0,23.6,15.4,0000.4,0012.55,0006.44,0005.88
2023-03-03 22:02:00,,0813.1,5.01,0.00,22.0,20.0,00.0,31.0,23.5,15.3,0000.1,0012.13,0006.43,0005.86
2023-03-03 22:03:00,,0813.1,5.00,0.00,21.9,19.9,00.0,30.9,23.4,15.5,-000.6,0012.06,0006.40,0005.85
2023-03-03 22:04:00,,0813.1,5.00,0.00,21.9,19.9,00.0,30.9,23.4,15.6,-000.5,0012.22,0006.41,0005.84
2023-03-03 22:05:00,,0813.1,5.01,0.00,21.8,19.9,00.0,30.9,23.4,15.6,-000.4,0012.13,0006.41,0005.83
2023-03-03 22:06:00,,0813.1,4.99,0.00,21.8,19.8,00.0,30.9,23.4,15.7,-000.3,0011.91,0006.31,0005.80
2023-03-03 22:07:00,,0813.1,4.99,0.00,21.8,19.8,00.0,30.8,23.3,15.7,-000.3,0011.74,0006.27,0005.79
2023-03-03 22:08:00,,0813.1,5.00,0.00,21.7,19.7,00.0,30.8,23.3,15.7,-000.2,0011.35,0006.26,0005.77
2023-03-03 22:09:00,,0813.1,5.01,0.00,21.7,19.6,00.0,30.8,23.2,15.9,-000.2,0010.76,0006.30,0005.77
2023-03-03 22:10:00,,0813.2,5.01,0.00,21.7,19.8,00.0,30.7,23.3,15.9,-000.1,0010.65,0006.29,0005.76
2023-03-03 22:11:00,,0813.1,4.99,0.00,21.8,21.1,00.0,30.7,23.6,15.8,0000.0,0011.10,0006.29,0005.78
2023-03-03 22:12:00,,0813.2,5.01,0.00,21.9,22.2,00.0,30.7,23.9,15.6,0000.3,0011.02,0006.27,0005.78
2023-03-03 22:13:00,,0813.2,4.99,0.00,22.0,22.5,00.0,30.7,24.0,15.5,0000.2,0010.98,0006.27,0005.79
2023-03-03 22:14:00,,0813.2,5.01,0.00,22.0,22.0,00.0,30.8,23.9,15.5,0000.0,0010.58,0006.27,0005.78
2023-03-03 22:15:00,,0813.2,5.01,0.00,22.0,21.5,00.0,30.8,23.8,15.5,-000.3,0010.45,0006.29,0005.80
2023-03-03 22:16:00,,0813.2,4.98,0.00,22.0,21.1,00.0,30.8,23.7,15.2,-000.5,0010.47,0006.25,0005.80
2023-03-03 22:17:00,,0813.2,4.98,0.00,22.0,20.9,00.0,30.8,23.7,15.3,-000.4,0010.96,0006.27,0005.82
2023-03-03 22:18:00,,0813.1,4.99,0.00,22.0,20.7,00.0,30.8,23.7,15.2,-000.5,0011.13,0006.29,0005.81
2023-03-03 22:19:00,,0813.2,5.00,0.00,22.0,20.5,00.0,30.8,23.7,15.2,-000.6,0011.16,0006.26,0005.78
2023-03-03 22:20:00,,0813.3,5.01,0.00,22.0,20.4,00.0,30.8,23.6,15.5,-000.8,0011.39,0006.23,0005.78
2023-03-03 22:21:00,,0813.2,5.00,0.00,21.9,20.3,00.0,30.8,23.6,15.7,-001.0,0012.01,0006.25,0005.79
2023-03-03 22:22:00,,0813.2,4.99,0.00,21.9,20.2,00.0,30.8,23.6,15.8,-000.8,0011.86,0006.27,0005.79
2023-03-03 22:23:00,,0813.1,4.99,0.00,21.9,20.2,00.0,30.8,23.6,15.7,-000.6,0012.48,0006.33,0005.80
2023-03-03 22:24:00,,0813.2,5.01,0.00,21.9,20.2,00.0,30.8,23.6,15.2,-000.5,0012.88,0006.35,0005.80
2023-03-03 22:25:00,,0813.1,4.99,0.00,21.9,20.2,00.0,30.7,23.6,15.0,-000.3,0013.11,0006.41,0005.80
2023-03-03 22:26:00,,0813.2,5.01,0.00,21.9,20.2,00.0,30.7,23.6,15.2,0000.0,0012.93,0006.39,0005.78
2023-03-03 22:27:00,,0813.2,4.98,0.00,21.9,20.2,00.0,30.7,23.6,15.0,-000.3,0012.82,0006.41,0005.78
2023-03-03 22:28:00,,0813.2,5.00,0.00,21.9,20.1,00.0,30.7,23.5,15.1,-000.0,0012.82,0006.39,0005.77
2023-03-03 22:29:00,,0813.3,5.02,0.00,21.9,20.1,00.0,30.7,23.5,15.2,-000.1,0012.70,0006.36,0005.77
2023-03-03 22:30:00,,0813.1,5.01,0.00,21.9,20.1,00.0,30.7,23.5,15.5,-000.3,0012.60,0006.38,0005.80
2023-03-03 22:31:00,,0813.2,4.97,0.00,21.8,20.1,00.0,30.7,23.5,15.5,0000.4,0012.40,0006.39,0005.81
2023-03-03 22:32:00,,0813.2,4.98,0.00,21.8,20.0,00.0,30.7,23.5,15.6,0000.4,0011.63,0006.41,0005.82
2023-03-03 22:33:00,,0813.2,5.00,0.00,21.8,20.0,00.0,30.7,23.5,15.5,-000.2,0011.52,0006.41,0005.81
2023-03-03 22:34:00,,0813.2,5.01,0.00,21.8,20.0,00.0,30.7,23.4,15.3,-001.2,0010.97,0006.39,0005.79
2023-03-03 22:35:00,,0813.1,5.00,0.00,21.8,20.0,00.0,30.6,23.4,15.2,-001.4,0010.68,0006.36,0005.79
2023-03-03 22:36:00,,0813.1,4.98,0.00,21.7,19.9,00.0,30.6,23.3,15.2,-001.6,0010.56,0006.35,0005.80
2023-03-03 22:37:00,,0813.1,5.00,0.00,21.7,19.9,00.0,30.6,23.3,15.2,-001.9,0010.75,0006.37,0005.80
2023-03-03 22:38:00,,0813.1,5.01,0.00,21.7,19.9,00.0,30.6,23.3,15.2,-001.3,0011.59,0006.35,0005.77
2023-03-03 22:39:00,,0813.1,5.00,0.00,21.7,19.9,00.0,30.6,23.3,15.2,-001.4,0011.25,0006.32,0005.74
2023-03-03 22:40:00,,0813.1,5.01,0.00,21.7,19.9,00.0,30.6,23.3,15.0,-000.8,0011.18,0006.29,0005.70
2023-03-03 22:41:00,,0813.1,5.00,0.00,21.7,19.8,00.0,30.6,23.3,15.2,-000.7,0011.15,0006.25,0005.64
2023-03-03 22:42:00,,0813.1,5.01,0.00,21.6,19.8,00.0,30.5,23.3,15.3,-001.1,0011.08,0006.19,0005.59
2023-03-03 22:43:00,,0813.1,4.99,0.00,21.7,20.5,00.0,30.5,23.4,15.3,-000.8,0011.07,0006.10,0005.54
2023-03-03 22:44:00,,0813.2,4.99,0.00,21.8,21.7,00.0,30.5,23.7,15.3,-000.6,0011.01,0006.07,0005.51
2023-03-03 22:45:00,,0813.2,5.02,0.00,21.9,22.6,00.0,30.5,24.0,15.2,0000.1,0010.99,0006.03,0005.48
2023-03-03 22:46:00,,0813.2,5.03,0.00,22.0,22.3,00.0,30.6,23.9,15.1,0000.4,0010.98,0006.01,0005.45
2023-03-03 22:47:00,,0813.2,5.00,0.00,22.0,21.8,00.0,30.6,23.8,15.0,0000.2,0010.96,0005.98,0005.44
2023-03-03 22:48:00,,0813.2,5.00,0.00,22.0,21.4,00.0,30.6,23.7,15.1,0000.1,0010.82,0005.95,0005.45
2023-03-03 22:49:00,,0813.2,4.99,0.00,22.0,21.0,00.0,30.7,23.7,15.1,-000.3,0010.35,0005.97,0005.48
2023-03-03 22:50:00,,0813.2,5.00,0.00,21.9,20.8,00.0,30.7,23.6,15.2,-000.2,0010.28,0005.99,0005.51
2023-03-03 22:51:00,,0813.2,4.99,0.00,21.9,20.6,00.0,30.7,23.6,15.3,-000.9,0010.45,0006.09,0005.57
2023-03-03 22:52:00,,0813.2,5.00,0.00,21.9,20.4,00.0,30.7,23.5,15.3,-001.2,0010.47,0006.14,0005.63
2023-03-03 22:53:00,,0813.2,5.00,0.00,21.9,20.3,00.0,30.7,23.5,15.3,-001.2,0010.67,0006.23,0005.68
2023-03-03 22:54:00,,0813.1,5.00,0.00,21.8,20.2,00.0,30.7,23.4,15.4,-001.4,0011.01,0006.32,0005.73
2023-03-03 22:55:00,,0813.1,5.00,0.00,21.8,20.2,00.0,30.7,23.4,15.4,-001.4,0011.35,0006.34,0005.77
2023-03-03 22:56:00,,0813.1,5.00,0.00,21.8,20.2,00.0,30.7,23.4,15.4,-001.6,0011.80,0006.36,0005.80
2023-03-03 22:57:00,,0813.2,5.01,0.00,21.8,20.1,00.0,30.6,23.4,15.4,-001.6,0012.34,0006.45,0005.85
2023-03-03 22:58:00,,0813.1,5.01,0.00,21.8,20.0,00.0,30.6,23.3,15.5,-001.4,0013.21,0006.47,0005.87
2023-03-03 22:59:00,,0813.1,5.00,0.00,21.7,20.0,00.0,30.6,23.3,15.4,-001.0,0014.03,0006.52,0005.88
